TIME,DELAY(SENSOR),PRES,T(CTD),SAL,OXYGEN,RAWTEMP,T(OPTODE),TCPHASE,FLUOR,BETA(BETA700),BETA(BETA412),BETA(BETA440),CDOM,C(CSC),ED(ED412.40),ED(ED444.00),ED(ED489.70),ED(ED554.30),LU(LU411.80),LU(LU443.40),LU(LU489.60),LU(LU554.10),COMP,TILTX,TILTX(TILTY),CHECK
1365371259,5808,498.7200012207031000,6.5892000198364260,34.1057014465332000,82.0612869262695300,600.4276733398438000,6.5704479217529300,48.6766204833984400,52,102,87,79,79,14923,2147749394,2147422884,2148008676,2147873298,2147631259,2147077275,2148242331,2147196278,1258,4,13,11797
1365371480,5810,487.3099975585937500,7.1315999031066895,34.0956993103027340,94.7790069580078100,584.0253906250000000,7.0991039276123050,47.0030517578125000,52,103,87,81,77,14923,2147745974,2147423643,2148007268,2147874404,2147624182,2147075474,2148245805,2147195830,2753,4,13,37690
1365371645,5809,475.9800109863281000,7.3887000083923340,34.0932998657226560,106.0961990356445300,575.7614746093750000,7.3645172119140625,45.6806907653808600,51,103,87,80,77,14921,2147746441,2147422601,2148006784,2147872731,2147626468,2147080438,2148243958,2147199917,2415,4,13,13889
1365371781,5808,464.4500122070312500,7.6233000755310060,34.0927009582519500,115.5178985595703100,568.2675781250000000,7.6046729087829590,44.6186218261718750,51,102,89,81,77,14923,2147744329,2147425060,2148006912,2147874779,2147620178,2147082441,2148237275,2147200018,782,4,13,15126
1365371891,5808,453.2900085449219000,7.7410001754760740,34.0861015319824200,122.7966995239257800,564.6320800781250000,7.7210030555725100,43.8624992370605500,50,104,86,79,74,14919,2147744822,2147426130,2148005878,2147875483,2147625490,2147085997,2148235520,2147198546,3418,4,13,52150
1365372004,5810,441.7600097656250000,7.8473000526428220,34.0800018310546900,130.5236053466797000,560.5709228515625000,7.8508219718933105,43.0853004455566400,50,103,88,80,76,14920,2147744448,2147428617,2148005476,2147872914,2147621805,2147088292,2148235977,2147200045,2776,4,13,51800
1365372114,5805,431.0899963378906000,8.1919002532958980,34.0766983032226560,140.1318054199218800,550.6663208007812000,8.1668376922607420,42.0740509033203100,51,102,86,80,74,14921,2147742912,2147426688,2148005586,2147874331,2147618331,2147085549,2148236452,2147201005,1425,4,13,52303
1365372235,5806,420.1099853515625000,8.3283004760742190,34.0834007263183600,147.1725006103515600,546.0963134765625000,8.3123741149902340,41.4032096862793000,50,105,86,79,75,14923,2147739986,2147425444,2148001444,2147871433,2147620251,2147092269,2148231908,2147199954,158,3,13,6413
1365372359,5808,409.6400146484375000,8.6218004226684570,34.0784988403320300,158.7931976318359400,536.8905029296875000,8.6050243377685550,40.3161888122558600,51,103,87,81,73,14923,2147737645,2147425161,2148005220,2147872996,2147620672,2147089435,2148235867,2147199533,1997,3,13,19077
1365372491,5808,399.0000000000000000,8.8446998596191400,34.0843009948730500,165.2841033935547000,529.7944946289062000,8.8301486968994140,39.6998710632324200,50,103,86,79,74,14920,2147738249,2147425005,2148004434,2147875657,2147618797,2147091145,2148231451,2147197851,858,4,13,45249
1365372637,5809,387.7600097656250000,9.1205997467041020,34.0896987915039060,171.9129028320312500,520.9163208007812000,9.1112670898437500,39.0583686828613300,50,103,86,80,72,14920,2147737408,2147424877,2148005065,2147875529,2147617042,2147093933,2148229641,2147201819,13,4,13,30931
1365372780,5808,376.7900085449219000,9.4103002548217770,34.0919990539550800,180.1407012939453000,512.1232299804688000,9.3891067504882810,38.3274993896484400,50,105,87,80,72,14923,2147737426,2147426276,2148005677,2147873014,2147612141,2147097444,2148232850,2147200164,3078,4,13,14175
1365372934,5807,364.5299987792969000,9.6216001510620120,34.0975990295410160,187.4384002685547000,504.8580932617187500,9.6182422637939450,37.7105216979980500,49,104,90,80,72,14921,2147735378,2147429650,2148007131,2147876214,2147612114,2147094710,2148232594,2147202916,2444,4,13,8392
1365373058,5810,352.5400085449219000,9.9739999771118160,34.1069984436035160,193.5635986328125000,493.7810058593750000,9.9668874740600590,37.1232414245605500,49,102,88,79,71,14922,2147735076,2147430326,2148011053,2147873810,2147609846,2147101952,2148230070,2147202322,2000,4,13,28439
1365373168,5812,341.7200012207031000,10.3161001205444340,34.1114997863769500,201.0462951660156200,483.0245056152344000,10.3046398162841800,36.4735984802246100,49,103,91,80,71,14921,2147732937,2147427894,2148010651,2147874989,2147610596,2147097682,2148228836,2147205787,2906,4,13,47209
1365373280,5809,330.8500061035156000,10.6436996459960940,34.1273002624511700,202.8164978027343800,472.5104980468750000,10.6340599060058600,36.1905517578125000,49,104,86,80,70,14918,2147735387,2147427785,2148012854,2147874669,2147608201,2147106441,2148224402,2147203611,2716,4,13,43296
1365373390,5808,319.8200073242187500,11.0542001724243160,34.1446990966796900,204.7145996093750000,459.8345031738281000,11.0302896499633790,35.8675117492675800,48,105,87,81,70,14918,2147733046,2147430957,2148023378,2147874157,2147608539,2147109942,2148232585,2147203227,1889,3,14,25239
1365373500,5809,309.3099975585937500,11.2818002700805660,34.1389999389648440,203.4602966308593800,451.7072143554687500,11.2838296890258790,35.8103103637695300,49,104,88,81,70,14915,2147729974,2147433718,2148033920,2147873636,2147607241,2147113984,2148231149,2147203785,773,3,14,24556
1365373623,5810,298.0599975585937500,12.0106000900268550,34.1488990783691400,203.3231964111328000,429.3323059082031000,11.9799404144287110,35.4570503234863300,49,103,88,81,69,14916,2147728731,2147432192,2148023835,2147873481,2147601664,2147114486,2148225408,2147206528,136,4,14,55453
1365373755,5809,287.6600036621094000,12.4477996826171880,34.1916007995605500,205.7409973144531200,413.0918884277344000,12.4835700988769530,35.0551490783691400,47,103,87,79,69,14913,2147728457,2147440594,2148060653,2147876534,2147599561,2147131803,2148240731,2147209398,2287,4,14,10118
1365373912,5806,276.6300048828125000,13.0413999557495120,34.2276992797851560,210.2398986816406200,395.2437133789062500,13.0356302261352540,34.5134010314941400,49,108,88,80,69,14915,2147724955,2147455460,2148090130,2147873289,2147596525,2147139867,2148250678,2147209106,514,4,14,64969
1365374066,5806,265.6099853515625000,13.5565004348754880,34.2597999572753900,213.6060028076172000,377.0396118164062500,13.5972995758056640,34.0415000915527340,49,102,85,79,68,14911,2147725513,2147469211,2148125321,2147875136,2147595300,2147149805,2148268059,2147211675,2878,2,15,40274
1365374234,5807,251.7799987792968800,14.6916999816894530,34.3720016479492200,216.0700988769531200,341.7875976562500000,14.6815204620361330,33.3734397888183600,49,106,88,81,67,14915,2147728585,2147503030,2148191067,2147872338,2147589184,2147172946,2148294061,2147212507,1387,2,13,32466
1365374344,5810,241.5299987792968800,15.0579996109008790,34.4135017395019500,217.5256042480468800,327.1553955078125000,15.1304302215576170,33.0779685974121100,49,106,89,78,66,14907,2147732836,2147535835,2148261714,2147872914,2147590198,2147197092,2148328402,2147215424,3380,3,15,52791
1365374479,5807,230.5099945068359400,15.9835996627807620,34.5241012573242200,217.5316009521484400,299.2345886230469000,15.9856100082397460,32.6714591979980500,48,105,90,79,66,14907,2147739209,2147589248,2148368000,2147877714,2147591177,2147231616,2148373824,2147223341,2200,3,14,59481
1365374622,5809,219.3200073242187500,16.4626007080078120,34.5867996215820300,217.5065002441406200,283.8624877929687500,16.4557991027832030,32.4523391723632800,48,103,88,80,65,14908,2147761993,2147676022,2148517357,2147872630,2147599113,2147293229,2148447963,2147227062,2086,2,14,37068
1365374798,5807,206.8000030517578000,18.1000995635986330,34.8050003051757800,212.2843017578125000,230.0957031250000000,18.0984191894531250,31.9789390563964840,50,110,89,80,65,14899,2147810779,2147831360,2148786313,2147877074,2147610834,2147394642,2148580864,2147238125,2690,2,14,15608
1365374909,5804,196.6100006103515600,18.6308994293212900,34.8857994079589840,213.9918060302734400,212.3782043457031200,18.6394901275634770,31.6414508819580080,51,106,88,80,64,14895,2147893056,2148048192,2149138925,2147876626,2147642761,2147533869,2148752000,2147251849,1461,3,15,15202
1365374964,5811,191.2500000000000000,18.9006996154785160,34.9308013916015600,215.0590972900390600,201.6342010498047000,18.9676609039306640,31.4369506835937500,51,107,87,81,64,14895,2147946038,2148152749,2149298450,2147875053,2147668937,2147601609,2148837376,2147260397,1165,3,14,47788
1365375019,5810,186.0800018310547000,19.1966991424560550,34.9757995605468750,217.0009002685547000,194.6495056152343800,19.1810493469238280,31.2388401031494140,52,109,91,80,64,14889,2148009252,2148271021,2149480091,2147877266,2147692900,2147696640,2148942098,2147270427,679,3,15,11545
1365375093,5811,179.5800018310547000,19.5753002166748050,35.0270004272460940,217.9860992431640600,181.8065948486328000,19.5735206604003900,31.0135402679443360,58,113,88,81,64,14883,2147826642,2147708406,2148430555,2147874386,2147616292,2147347602,2148399314,2147227017,3538,2,15,21730
1365375148,5810,175.4100036621093800,19.8367996215820300,35.0676002502441400,218.8721923828125000,173.1506958007812500,19.8381595611572270,30.8509998321533200,60,111,90,80,63,14883,2148105581,2148358921,2149561197,2147879259,2147736475,2147747565,2148956096,2147270765,2900,2,15,40102
1365375203,5809,171.3600006103515600,19.9752006530761720,35.0859985351562500,219.3043975830078000,168.6190032958984400,19.9767398834228500,30.7679691314697270,66,113,86,80,63,14876,2148051282,2148176429,2149184365,2147879936,2147720804,2147662400,2148806281,2147259657,2278,2,15,43684
1365375258,5809,167.4100036621093800,20.1683006286621100,35.1036987304687500,219.4618072509765600,161.3975982666015600,20.1976604461669920,30.6636791229248050,71,113,89,82,64,14869,2148431881,2148933979,2150425371,2147885010,2147885412,2148107227,2149395145,2147303405,1720,2,15,6258
1365375313,5810,163.5599975585937500,20.6046009063720700,35.1360015869140600,217.2565002441406200,149.1849975585937500,20.5714702606201170,30.6156806945800780,83,119,92,82,62,14856,2148554432,2149095926,2150636882,2147883392,2147929408,2148162276,2149446116,2147311104,1168,2,15,3227
1365375368,5809,159.9299926757812500,20.7943000793457030,35.1651992797851560,218.3007049560547000,142.2810058593750000,20.7829208374023440,30.4701900482177730,90,117,90,82,63,14849,2148945627,2149761654,2151654592,2147891474,2148091894,2148547218,2149954541,2147348242,337,1,15,11668
1365375447,5808,155.3600006103515600,21.0105991363525400,35.1712989807128900,219.3457031250000000,135.2908935546875000,20.9971294403076170,30.3242607116699220,99,119,93,82,62,14839,2149285897,2150234313,2152296429,2147895296,2148226642,2148764982,2150200201,2147365677,2734,2,15,46856
1365375524,5808,151.6799926757812500,21.1417007446289060,35.1772994995117200,219.3153076171875000,132.3350067138672000,21.0877399444580080,30.2867107391357420,104,124,87,83,62,14825,2149096978,2149733248,2151345691,2147890962,2148136274,2148446509,2149742948,2147337563,2977,2,15,4961
1365375612,5805,147.7899932861328000,21.5118007659912100,35.2042999267578100,220.1555938720703000,119.8268966674804700,21.4714393615722660,30.0802307128906250,115,127,91,83,62,14821,2149370989,2150059136,2151727616,2147893888,2148223945,2148562843,2149837787,2147346496,168,2,15,40244
1365375736,5809,144.0500030517578000,21.7024993896484380,35.2168006896972660,222.9015960693359400,114.2464981079101600,21.6427593231201170,29.8691406250000000,117,124,91,82,62,14801,2149194998,2149635693,2150980745,2147890614,2148151021,2148322121,2149497380,2147323538,1119,2,16,22445
1365375956,5807,140.6600036621093800,21.9997997283935550,35.2454986572265600,224.9496002197265600,103.9797973632812500,21.9581909179687500,29.6343498229980470,126,120,88,82,59,14804,2151190829,2152550692,2155085677,2147919597,2148920621,2149679241,2151178797,2147458377,1697,2,15,62750
1365376152,5810,135.9299926757812500,22.3850994110107420,35.3158988952636700,229.9757995605468800,90.4845733642578100,22.3733406066894530,29.2170600891113280,134,121,88,83,60,14798,2151709019,2152885001,2155191067,2147928000,2149148946,2149801316,2151168219,2147466651,88,2,15,18833
1365376273,5808,132.0299987792968800,22.6334991455078120,35.3446998596191400,235.8928070068359400,82.3394165039062500,22.6242198944091800,28.8348407745361330,132,121,86,82,60,14790,2151990912,2153131702,2155315666,2147930212,2149373458,2149952438,2151243977,2147473261,2877,2,16,20489
1365376385,5811,127.3700027465820300,22.7819004058837900,35.3574981689453100,238.3408050537109400,77.4335403442382800,22.7754497528076170,28.6602897644042970,115,118,91,83,60,14799,2155469019,2157779227,2161273307,2147991561,2151070226,2152261156,2153739611,2147691190,2726,2,15,42456
1365376462,5806,123.3499984741211000,22.8484001159667970,35.3601989746093750,240.2303924560547000,75.2552337646484400,22.8426303863525400,28.5470294952392580,101,119,90,84,59,14801,2156485988,2158933851,2162392758,2148017133,2151821147,2153038930,2154393124,2147755958,1847,2,15,48524
1365376539,5808,119.2900009155273400,22.9293994903564450,35.3619995117187500,241.3999023437500000,72.8931198120117200,22.9155006408691400,28.4646797180175780,93,119,91,82,59,14798,2157588059,2160176740,2163586340,2148044480,2152636928,2153920786,2155146148,2147821129,1460,2,16,22286
1365376616,5806,115.3899993896484400,22.9824008941650400,35.3657989501953100,242.2861022949218800,70.8596878051757800,22.9782390594482420,28.3994197845459000,94,118,90,83,57,14798,2155274340,2156783588,2158863488,2148005339,2151631881,2152277056,2153138596,2147654491,1468,2,16,37499
1365376695,5808,111.5199966430664000,23.0450992584228500,35.3702011108398440,242.7749938964843800,68.6607284545898400,23.0461196899414060,28.3500308990478500,91,120,89,83,59,14801,2154985261,2156165010,2157709028,2147986889,2151864009,2152380379,2153078966,2147643593,1432,1,16,23393
1365376783,5805,107.4800033569336000,23.1142997741699220,35.3712997436523440,243.4355926513672000,66.4866561889648400,23.1132392883300780,28.2933597564697270,88,121,91,84,58,14796,2157165019,2158854564,2160708288,2148048347,2153393938,2154170441,2154713901,2147779035,819,2,16,19299
1365376871,5807,103.5000000000000000,23.2240009307861330,35.3759002685546900,243.9886932373047000,62.9528312683105500,23.2223892211914060,28.2247200012207030,88,121,92,85,57,14782,2166476114,2170930020,2174938880,2148338678,2159385508,2161503853,2161746185,2148389101,358,2,15,7828
1365376959,5809,99.5800018310546900,23.3400993347167970,35.3869018554687500,243.6788940429687500,59.4568710327148440,23.3304195404052730,28.1949501037597660,87,123,88,83,59,14780,2168358628,2173138569,2177059318,2148441371,2161189440,2163350564,2163156672,2148513938,2963,1,16,2672
1365377016,5805,97.0800018310546900,23.3672008514404300,35.3899993896484400,243.7570953369140600,58.4556884765625000,23.3613700866699220,28.1789302825927730,81,124,88,84,58,14783,2159459858,2161225462,2162420269,2148132150,2156061312,2156692352,2156403401,2147930230,2331,2,16,46859
1365377071,5808,94.6500015258789000,23.3554000854492200,35.3851013183593750,244.0820007324218800,58.6596603393554700,23.3550605773925780,28.1671009063720700,82,125,90,84,56,14780,2176271661,2183343213,2188374848,2148814144,2167922386,2171057938,2169870281,2149096448,2053,1,16,41391
1365377126,5810,92.1299972534179700,23.3554992675781250,35.3800010681152340,244.2897949218750000,58.2261390686035160,23.3684692382812500,28.1526298522949220,81,125,91,84,57,14773,2180196196,2188402322,2194061942,2149065243,2171353746,2174999542,2173304411,2149406838,2076,1,16,51076
1365377181,5808,89.6900024414062500,23.4472007751464840,35.3898010253906250,244.0200958251953000,55.9191093444824200,23.4398002624511720,28.1358890533447270,83,123,92,84,57,14772,2180591597,2188725778,2193942116,2149135241,2172265508,2175875190,2173796480,2149455862,2055,2,16,37416
1365377236,5807,87.5299987792968800,23.4943008422851560,35.3833999633789060,243.6542053222656200,54.3283309936523440,23.4890003204345700,28.1321601867675780,83,123,91,84,57,14759,2183809206,2192834578,2198469915,2149379593,2175612178,2179612635,2176896923,2149736658,1649,1,16,50332
1365377291,5809,85.6500015258789000,23.5093002319335940,35.3796005249023440,243.7044067382812500,53.7681388854980500,23.5063304901123050,28.1231098175048830,81,124,94,83,60,14766,2186476763,2196134043,2202006043,2149625993,2178027721,2182224822,2178924662,2149934290,1270,2,16,59428
1365377348,5806,83.8799972534179700,23.5051002502441400,35.3773002624511700,243.6690979003906200,53.8840904235839840,23.5027408599853500,28.1260795593261720,83,123,89,83,56,14772,2188794020,2199040502,2204966345,2149814518,2180363446,2184846281,2180988809,2150122560,1107,2,16,13419
1365377403,5809,82.2399978637695300,23.4990997314453120,35.3634986877441400,243.5809936523437500,53.9683799743652340,23.5001296997070300,28.1310901641845700,83,125,93,85,57,14751,2190872749,2201586870,2207345426,2149997312,2181724562,2186198976,2181852854,2150213833,967,1,16,17663
1365377480,5804,80.0800018310546900,23.4486007690429700,35.3111000061035160,240.7492980957031200,55.7190704345703100,23.4459896087646500,28.2790107727050780,85,123,93,85,59,14744,2196210157,2207389641,2212538633,2150317238,2184724955,2189740928,2184713344,2150518080,1141,2,16,7376
1365377557,5807,78.1999969482421900,23.4545993804931640,35.2859992980957000,236.6555938720703000,55.4276618957519500,23.4549999237060550,28.4610404968261720,85,123,90,84,59,14751,2200291364,2211471606,2215738422,2150574390,2185884937,2191269906,2185960841,2150681481,1830,2,16,51604
1365377634,5808,76.3499984741211000,23.5589008331298830,35.2975997924804700,234.7498931884765600,52.9425201416015600,23.5318698883056640,28.5174903869628900,80,121,93,84,59,14759,2203365906,2213891145,2217268242,2150868342,2186818395,2192498185,2186967634,2150842011,1377,1,16,59238
1365377723,5807,73.6600036621093800,23.6077995300292970,35.3147010803222660,235.3332061767578000,50.6115798950195300,23.6040000915527340,28.4613609313964840,72,124,90,85,57,14760,2214032438,2225249929,2227868946,2151718025,2191944420,2198842486,2192254912,2151470921,1606,1,16,31802
1365377778,5804,71.1500015258789000,23.6502990722656250,35.3204994201660160,236.5379028320312500,49.3479995727539060,23.6431102752685550,28.3903102874755860,72,123,93,85,57,14755,2219599890,2230181531,2231405933,2152237028,2195236754,2202426706,2194813348,2151801380,1773,2,16,35373
1365377833,5807,68.5599975585937500,23.7406997680664060,35.3000984191894500,235.5937957763672000,46.1010589599609400,23.7436408996582030,28.3931293487548830,69,123,92,84,60,14767,2231961462,2242358244,2242683574,2153398336,2202167725,2210168310,2200898340,2152537682,1247,1,16,14140
1365377888,5808,66.4499969482421900,23.8227996826171880,35.3042984008789060,235.2212066650390600,43.7139587402343750,23.8175907135009770,28.3802700042724600,66,121,92,84,59,14773,2238802432,2248615488,2248347602,2154105133,2205442925,2213769508,2203510061,2152905225,255,1,16,8348
1365377943,5806,64.5100021362304700,23.9489994049072270,35.3176994323730500,236.0599975585937500,39.8637504577636700,23.9369106292724600,28.2938594818115230,62,120,90,83,57,14781,2245796571,2254994925,2253741458,2154873499,2210992731,2219693988,2207811209,2153397293,144,1,16,47402
1365378022,5810,61.3699989318847660,23.9820995330810550,35.3223991394043000,237.4134979248047000,38.4844207763671900,23.9796695709228500,28.2150306701660160,60,121,94,85,57,14766,2258882313,2267107611,2264400694,2156627922,2222771044,2231248630,2215634112,2154447360,40,1,15,7613
1365378077,5809,58.4900016784668000,24.0167007446289060,35.3250007629394500,238.1347045898437500,36.8933601379394500,24.0290107727050780,28.1623992919921880,59,121,93,84,57,14762,2271717348,2279920713,2276000411,2158715126,2234832905,2242920713,2223449892,2155418998,2878,2,16,59347
1365378132,5809,55.6199989318847660,24.1100006103515620,35.3296012878418000,238.7167053222656200,34.1847610473632800,24.1130409240722660,28.1024093627929700,60,122,91,83,54,14756,2278824868,2286853366,2282124187,2160274486,2244678345,2251569526,2228484352,2156347328,2337,1,16,36275
1365378187,5808,53.0099983215332000,24.2042999267578120,35.3273010253906250,239.3003997802734400,31.1761093139648440,24.2064094543457030,28.0389099121093750,59,120,91,83,53,14754,2295717604,2304906477,2300282267,2163724562,2263423323,2269655670,2240710738,2157947977,1723,0,16,18817
1365378242,5806,50.5499992370605500,24.2611007690429700,35.3259010314941400,239.5422973632812500,29.3819503784179700,24.2621192932128900,28.0059604644775400,57,122,88,85,59,14754,2310725714,2320133933,2315492635,2167211419,2282036434,2287368054,2252549842,2159645760,1403,1,16,61353
1365378297,5808,48.0699996948242200,24.2866001129150400,35.3303985595703100,240.0052032470703000,28.4768600463867200,24.2902297973632800,27.9739799499511720,57,122,91,84,58,14757,2314316123,2322839433,2318083200,2168932123,2294578313,2298467364,2259462820,2160570605,921,1,16,49971
1365378354,5808,45.3800010681152340,24.2956008911132800,35.3325004577636700,240.3208007812500000,28.0913391113281250,24.3022003173828120,27.9550991058349600,56,121,92,86,54,14758,2301844086,2307820909,2302616694,2169256850,2293198400,2293633974,2253541211,2160307062,797,1,16,7354
1365378409,5810,42.6199989318847660,24.3043003082275400,35.3312988281250000,240.6625061035156200,27.7034492492675780,24.3142509460449220,27.9350395202636720,54,124,90,85,52,14753,2307622162,2312756544,2306997193,2172304064,2309195181,2307824704,2262103725,2161755099,787,1,16,58505
1365378464,5805,39.8199996948242200,24.3071002960205080,35.3306999206543000,240.5914001464843800,27.6171092987060550,24.3169307708740230,27.9371299743652340,56,121,93,84,57,14749,2272584292,2274351469,2268019794,2167589028,2275204690,2269752740,2232284013,2158176420,652,2,17,64823
1365378519,5808,37.0299987792968750,24.3090991973876950,35.3302001953125000,240.8574981689453000,27.5258407592773440,24.3197708129882800,27.9240303039550780,54,121,92,84,53,14748,2290409819,2293232850,2287514313,2173551469,2297950509,2291119936,2246764425,2160654171,454,1,16,60384
1365378574,5807,34.3199996948242200,24.3787994384765620,35.3219985961914060,240.4765014648437500,25.3917903900146500,24.3860702514648440,27.9149208068847660,53,122,91,86,56,14757,2299609654,2302748726,2297653046,2179321901,2313762980,2305462921,2256234651,2162594605,166,2,16,58052
1365378629,5807,31.8299999237060550,24.4058990478515620,35.3213996887207000,240.3329925537109400,24.3805809020996100,24.4174900054931640,27.9087390899658200,53,119,94,83,56,14763,2339980992,2345547401,2341419922,2193204598,2361388800,2350838144,2287499346,2168040868,3490,2,16,24143
1365378686,5807,29.3899993896484380,24.4344997406005860,35.3208999633789060,240.0030975341797000,23.4065494537353500,24.4477691650390620,27.9112701416015620,52,118,95,84,52,14767,2323677467,2327614016,2323696064,2193196918,2347426477,2335522349,2275504530,2166998573,3348,1,16,6908
1365378741,5806,27.1800003051757800,24.4566001892089840,35.3185997009277340,240.0283966064453000,22.7414207458496100,24.4684391021728500,27.9019203186035160,51,119,88,83,58,14767,2312123702,2314844461,2310999250,2193328731,2339558564,2326212598,2268043520,2166551021,3212,1,16,55912
1365378796,5806,25.0400009155273440,24.4626007080078120,35.3179016113281250,239.8336944580078000,22.5839691162109380,24.4733390808105470,27.9087505340576170,52,119,91,83,56,14768,2336268004,2340164699,2337840064,2206931410,2371673206,2356387008,2288540854,2170991030,3298,2,16,60118
